Location: Sternwarte ZA, Rosenfeld-Brittheim
(48.2889°N, 8.6789°E)
Time: 08:14:19
(UTC+02:00)

ISS - Pass Details

Date: 18 May 2021
Orbit: 417 x 422 km, 51.6° (Epoch: 18 June)

Event Time Altitude Azimuth Distance (km) Brightness Sun altitude
Rises 01:16:07 0° 287° (WNW) 2,371 0.3 -22.1°
Reaches altitude 10° 01:18:15 10° 292° (WNW) 1,506 -0.7 -22.2°
Maximum altitude 01:21:34 52° 10° (N) 533 -3.0 -22.2°
Enters shadow 01:22:22 40° 58° (ENE) 633 -2.7 -22.2°
